#timestamp,LO_Frequency,Hit 
1499378415.5,286047001.6,N
1499378435.3,286047001.4,N
1499378455.2,286047004.4,N
1499378475.0,286047001.3,N
1499378475.9,286047001.3,N
1499378495.7,286047001.7,N
1499378515.6,286047002.0,N
1499378535.4,286047002.2,N
1499378555.3,286047003.9,N
1499378575.1,286047001.9,N
1499378576.0,286047001.9,N
1499378595.8,286047002.3,N
1499378615.7,286047002.7,N
1499378635.5,286046999.8,N
1499378655.4,286046999.9,N
1499378675.2,286046999.8,N
1499378695.0,286046999.7,N
1499378695.9,286046999.7,N
1499378715.8,286047002.7,N
1499378735.6,286047002.8,N
1499378755.4,286046999.9,N
1499378775.3,286047001.0,N
1499378795.1,286047000.3,N
1499378815.9,286047000.9,N
1499378835.7,286047000.8,N
1499378855.5,286047000.9,N
1499378875.4,286047000.0,N
1499378895.2,286047000.6,N
1499378915.0,286047000.3,N
1499378915.9,286047000.3,N
1499378935.8,286047000.5,N
1499378955.6,286047000.9,N
1499378975.5,286046999.4,N
1499378995.3,286046998.9,N
1499379015.1,286046996.5,N
1499379035.9,286046996.6,N
1499379055.7,286046997.8,N
1499379075.5,286046998.0,N
1499379095.4,286046997.4,N
1499379115.2,286046995.5,N
1499379135.1,286046993.3,N
1499379136.0,286046993.3,N
1499379155.8,286046996.0,N
1499379175.6,286046995.5,N
1499379195.5,286046996.3,N
1499379215.3,286046996.1,N
1499379235.2,286046996.1,N
1499379255.9,286046995.5,N
1499379275.7,286046994.9,N
1499379295.6,286046997.7,N
1499379315.4,286046995.4,N
1499379335.2,286046996.0,N
1499379355.1,286046993.3,N
1499379356.0,286046993.3,N
1499379375.8,286046996.4,N
1499379395.7,286046995.4,N
1499379415.5,286046996.0,N
1499379435.3,286046996.2,N
1499379455.2,286046993.7,N
1499379475.0,286046993.9,N
1499379475.9,286046993.9,N
1499379495.7,286046996.4,N
1499379515.6,286046993.3,N
1499379535.4,286046993.5,N
1499379555.3,286046996.4,N
1499379575.1,286046995.5,N
1499379576.0,286046995.5,N
1499379595.8,286046995.1,N
1499379615.7,286046995.8,N
1499379635.5,286046995.4,N
1499379655.4,286046995.2,N
1499379675.2,286046993.5,N
1499379695.0,286046993.6,N
1499379695.9,286046993.6,N
1499379715.8,286046994.2,N
1499379735.6,286046994.1,N
1499379755.4,286046992.3,N
1499379775.3,286046990.1,N
1499379795.1,286046992.5,N
1499379815.9,286046992.6,N
1499379835.7,286046992.7,N
1499379855.5,286046992.8,N
1499379875.4,286046992.9,N
1499379895.2,286046993.9,N
1499379915.0,286046994.7,N
1499379915.9,286046994.7,N
1499379935.8,286046991.9,N
1499379955.6,286046992.9,N
1499379975.5,286046990.1,N
1499379995.3,286046990.3,N
1499380015.1,286046990.3,N
1499380035.9,286046990.3,N
1499380055.7,286046990.5,N
1499380075.5,286046990.2,N
1499380095.4,286046990.9,N
1499380115.2,286046993.2,N
1499380135.1,286046990.3,N
1499380136.0,286046990.3,N
1499380155.8,286046990.6,N
1499380175.6,286046990.5,N
1499380195.5,286046993.0,N
1499380215.3,286046993.1,N
1499380235.2,286046990.5,N
1499380255.9,286046990.7,N
1499380275.7,286046990.1,N
1499380295.6,286046992.6,N
1499380315.4,286046991.7,N
1499380335.2,286046994.7,N
1499380355.1,286046991.8,N
1499380356.0,286046991.8,N
1499380375.8,286046994.3,N
1499380395.7,286046994.4,N
1499380415.5,286046994.1,N
1499380435.3,286046993.9,N
1499380455.2,286046994.3,N
1499380475.0,286046994.6,N
1499380475.9,286046994.6,N
1499380495.7,286046996.0,N
1499380515.6,286046995.3,N
1499380535.4,286046996.2,N
1499380555.3,286046996.3,N
1499380575.1,286046996.2,N
1499380595.8,286046996.3,N
1499380615.7,286046995.7,N
1499380635.5,286046996.3,N
1499380655.4,286046996.1,N
1499380675.2,286046996.2,N
1499380695.0,286046995.5,N
1499380695.9,286046995.5,N
1499380715.8,286046995.4,N
1499380735.6,286046995.7,N
1499380755.4,286046997.1,N
1499380775.3,286046997.2,N
1499380795.1,286046997.3,N
1499380815.9,286046995.2,N
1499380835.7,286046996.2,N
1499380855.5,286046997.1,N
1499380875.4,286046997.4,N
1499380895.2,286046998.0,N
1499380915.0,286046996.7,N
1499380916.0,286046996.7,N
1499380935.8,286046996.7,N
1499380955.6,286046999.5,N
1499380975.5,286046997.6,N
1499380995.3,286046997.5,N
1499381015.1,286046995.0,N
1499381035.9,286046995.6,N
1499381055.7,286046997.2,N
1499381075.6,286046997.8,N
1499381095.4,286046995.1,N
1499381115.2,286046995.4,N
1499381135.1,286046995.3,N
1499381136.0,286046995.3,N
1499381155.8,286046995.3,N
1499381175.6,286046997.5,N
1499381195.5,286046998.0,N
1499381215.3,286046997.2,N
1499381235.2,286046998.7,N
1499381255.9,286046999.2,N
1499381275.7,286046997.1,N
1499381295.6,286046999.1,N
1499381315.4,286046998.8,N
1499381335.2,286046999.4,N
1499381355.1,286046999.4,N
1499381356.0,286046999.4,N
1499381375.8,286046996.7,N
1499381395.7,286046996.9,N
1499381415.5,286046999.4,N
1499381435.3,286047000.6,N
1499381455.2,286047001.2,N
1499381475.0,286046998.6,N
1499381475.9,286046998.6,N
1499381495.8,286046999.6,N
1499381515.6,286046998.1,N
1499381535.4,286047000.6,N
1499381555.3,286046999.1,N
1499381575.1,286046999.6,N
1499381595.8,286046998.1,N
1499381615.7,286047000.9,N
1499381635.5,286047000.7,N
1499381655.4,286047001.1,N
1499381675.2,286047000.4,N
1499381695.0,286047000.1,N
1499381695.9,286047000.1,N
1499381715.8,286047000.0,N
1499381735.6,286047000.3,N
1499381755.4,286047000.4,N
1499381775.3,286047002.5,N
1499381795.1,286047002.0,N
1499381815.9,286047000.2,N
1499381835.7,286047001.9,N
1499381855.5,286047004.3,N
1499381875.4,286047004.0,N
1499381895.2,286047004.4,N
1499381915.0,286047002.4,N
1499381915.9,286047002.4,N
1499381935.8,286047002.7,N
1499381955.6,286047001.3,N
1499381975.5,286047000.1,N
1499381995.3,286047000.0,N
